This demonstration page uses our WeatherBlox Daily Observations layout. Learn more.

Hourly Observations for July 25, 2017

Temp ( °F °C ) Dew Point ( °F °C ) Humidity (%) Winds ( mph kmh ) Pressure ( in mb ) Visibility ( mi km ) Precip ( " mm )
12:15 am 00:15 Partly Cloudy 79 26 68 20 70 70 N 14 22 29.94 1014 10 16.09344 0 0
12:35 am 00:35 Partly Cloudy 77 25 68 20 74 74 N 14 22 29.94 1014 10 16.09344 0 0
12:55 am 00:55 Clear 77 25 68 20 74 74 N 8 13 29.97 1015 10 16.09344 0 0
1:15 am 01:15 Clear 77 25 66 19 69 69 N 9 15 29.97 1015 10 16.09344 0 0
1:35 am 01:35 Clear 75 24 64 18 69 69 NNW 8 13 29.97 1015 10 16.09344 0 0
1:55 am 01:55 Clear 75 24 64 18 69 69 N 10 17 29.97 1015 10 16.09344 0 0
2:15 am 02:15 Clear 73 23 63 17 69 69 N 12 19 29.97 1015 10 16.09344 0 0
2:35 am 02:35 Clear 73 23 63 17 69 69 N 10 17 30 1016 10 16.09344 0 0
2:55 am 02:55 Clear 73 23 63 17 69 69 N 9 15 30 1016 10 16.09344 0 0
3:15 am 03:15 Clear 72 22 61 16 69 69 N 10 17 30 1016 10 16.09344 0 0
3:35 am 03:35 Clear 72 22 61 16 69 69 N 8 13 30 1016 10 16.09344 0 0
3:55 am 03:55 Clear 72 22 61 16 69 69 N 9 15 30.03 1017 10 16.09344 0 0
4:15 am 04:15 Clear 70 21 61 16 73 73 N 9 15 30.03 1017 10 16.09344 0 0
4:35 am 04:35 Clear 70 21 59 15 69 69 N 3 6 30.03 1017 10 16.09344 0 0
4:55 am 04:55 Clear 68 20 59 15 73 73 Calm 30.03 1017 10 16.09344 0 0
5:15 am 05:15 Clear 68 20 61 16 78 78 Calm 30.03 1017 10 16.09344 0 0
5:35 am 05:35 Clear 68 20 59 15 73 73 Calm 30.06 1018 10 16.09344 0 0
5:55 am 05:55 Clear 68 20 59 15 73 73 NW 6 9 30.06 1018 10 16.09344 0 0
6:15 am 06:15 Sunny 64 18 61 16 88 88 Calm 30.06 1018 10 16.09344 0 0
6:35 am 06:35 Sunny 68 20 59 15 73 73 Calm 30.06 1018 10 16.09344 0 0
6:55 am 06:55 Sunny 68 20 61 16 78 78 NW 5 7 30.06 1018 10 16.09344 0 0
7:15 am 07:15 Sunny 68 20 61 16 78 78 WNW 8 13 30.09 1019 10 16.09344 0 0
7:35 am 07:35 Sunny 70 21 61 16 73 73 NW 8 13 30.09 1019 10 16.09344 0 0
7:55 am 07:55 Sunny 70 21 61 16 73 73 NW 6 9 30.09 1019 10 16.09344 0 0
8:15 am 08:15 Sunny 72 22 61 16 69 69 NNW 5 7 30.09 1019 10 16.09344 0 0
8:35 am 08:35 Sunny 72 22 61 16 69 69 NW 14 22 30.09 1019 10 16.09344 0 0
8:55 am 08:55 Sunny 72 22 61 16 69 69 NW 17 28 30.09 1019 10 16.09344 0 0
9:15 am 09:15 Sunny 72 22 61 16 69 69 NNW 13 20 30.09 1019 10 16.09344 0 0
9:35 am 09:35 Sunny 73 23 61 16 65 65 N 9 15 30.09 1019 10 16.09344 0 0
9:55 am 09:55 Sunny 73 23 61 16 65 65 NNW 12 19 30.12 1020 10 16.09344 0 0
10:15 am 10:15 Sunny 73 23 63 17 69 69 NNW 16 26 30.12 1020 10 16.09344 0 0
10:35 am 10:35 Partly Cloudy 75 24 63 17 65 65 NNW 9 15 30.12 1020 10 16.09344 0 0
10:55 am 10:55 Partly Cloudy 77 25 63 17 61 61 N 15 24 30.12 1020 10 16.09344 0 0
11:15 am 11:15 Mostly Cloudy 77 25 63 17 61 61 N 9 15 30.12 1020 10 16.09344 0 0
11:35 am 11:35 Mostly Cloudy 77 25 63 17 61 61 N 9 15 30.12 1020 10 16.09344 0 0
11:55 am 11:55 Mostly Cloudy 77 25 63 17 61 61 NNW 15 24 30.15 1021 10 16.09344 0 0
12:15 pm 12:15 Cloudy 77 25 63 17 61 61 N 12 19 30.12 1020 10 16.09344 0 0
12:35 pm 12:35 Cloudy 77 25 63 17 61 61 NNW 10 17 30.15 1021 10 16.09344 0 0
12:55 pm 12:55 Cloudy 77 25 63 17 61 61 N 10 17 30.15 1021 10 16.09344 0 0
1:15 pm 13:15 Cloudy 77 25 63 17 61 61 NNE 12 19 30.15 1021 10 16.09344 0 0
1:35 pm 13:35 Cloudy 77 25 64 18 65 65 NNW 13 20 30.15 1021 10 16.09344 0 0
1:55 pm 13:55 Cloudy 77 25 64 18 65 65 NNW 10 17 30.15 1021 10 16.09344 0 0
2:15 pm 14:15 Cloudy 77 25 64 18 65 65 NW 12 19 30.15 1021 10 16.09344 0 0
2:35 pm 14:35 Cloudy 79 26 63 17 58 58 N 12 19 30.15 1021 10 16.09344 0 0
2:55 pm 14:55 Mostly Cloudy 79 26 63 17 58 58 N 12 19 30.15 1021 10 16.09344 0 0
3:15 pm 15:15 Cloudy 77 25 63 17 61 61 NNW 9 15 30.15 1021 10 16.09344 0 0
3:35 pm 15:35 Mostly Cloudy 79 26 63 17 58 58 N 9 15 30.15 1021 10 16.09344 0 0
3:55 pm 15:55 Cloudy 81 27 63 17 54 54 NW 12 19 30.15 1021 10 16.09344 0 0
4:15 pm 16:15 Cloudy 77 25 63 17 61 61 NNW 8 13 30.15 1021 10 16.09344 0 0
4:35 pm 16:35 Mostly Cloudy 79 26 63 17 58 58 WNW 12 19 30.15 1021 10 16.09344 0 0
4:55 pm 16:55 Mostly Cloudy 81 27 63 17 54 54 NNW 8 13 30.15 1021 10 16.09344 0 0
5:15 pm 17:15 Partly Cloudy 79 26 63 17 58 58 NNW 7 11 30.15 1021 10 16.09344 0 0
5:35 pm 17:35 Partly Cloudy 79 26 63 17 58 58 NNW 10 17 30.15 1021 10 16.09344 0 0
5:55 pm 17:55 Sunny 79 26 63 17 58 58 NW 7 11 30.15 1021 10 16.09344 0 0
6:15 pm 18:15 Sunny 77 25 63 17 61 61 N 9 15 30.15 1021 10 16.09344 0 0
6:35 pm 18:35 Sunny 79 26 63 17 58 58 NNW 7 11 30.15 1021 10 16.09344 0 0
6:55 pm 18:55 Sunny 77 25 63 17 61 61 NNW 9 15 30.15 1021 10 16.09344 0 0
7:15 pm 19:15 Partly Cloudy 77 25 63 17 61 61 NNW 7 11 30.15 1021 10 16.09344 0 0
7:35 pm 19:35 Sunny 77 25 63 17 61 61 N 7 11 30.18 1022 10 16.09344 0 0
7:55 pm 19:55 Sunny 77 25 63 17 61 61 N 9 15 30.18 1022 10 16.09344 0 0
8:15 pm 20:15 Sunny 75 24 63 17 65 65 N 8 13 30.18 1022 10 16.09344 0 0
8:35 pm 20:35 Partly Cloudy 73 23 63 17 69 69 N 7 11 30.18 1022 10 16.09344 0 0
8:55 pm 20:55 Partly Cloudy 73 23 63 17 69 69 N 7 11 30.18 1022 10 16.09344 0 0
9:15 pm 21:15 Clear 73 23 63 17 69 69 NNE 3 6 30.18 1022 10 16.09344 0 0
9:35 pm 21:35 Clear 73 23 63 17 69 69 N 6 9 30.21 1023 10 16.09344 0 0
9:55 pm 21:55 Clear 72 22 64 18 78 78 NNW 3 6 30.21 1023 10 16.09344 0 0
10:15 pm 22:15 Clear 70 21 64 18 83 83 N 5 7 30.21 1023 10 16.09344 0 0
10:35 pm 22:35 Clear 70 21 64 18 83 83 N 3 6 30.21 1023 10 16.09344 0 0
10:55 pm 22:55 Clear 68 20 64 18 88 88 NNW 5 7 30.21 1023 10 16.09344 0 0
11:15 pm 23:15 Clear 68 20 64 18 88 88 N 3 6 30.21 1023 10 16.09344 0 0
11:35 pm 23:35 Clear 68 20 64 18 88 88 Calm 30.21 1023 10 16.09344 0 0
11:55 pm 23:55 Clear 68 20 64 18 88 88 Calm 30.24 1024 10 16.09344 0 0

Powered by AerisWeather